Location: ??????
(41.3164°N, 22.6615°E)
Time: 20:05:33
(UTC+00:00)

CAS-4A - Pass Details

Date: 06 July 2022
Orbit: 521 x 536 km, 43.0° (Epoch: 19 August)

Event Time Altitude Azimuth Distance (km) Brightness Sun altitude
Exits shadow 00:58:57 15° 281° (W) 1,445 ? -17.7°
Maximum altitude 01:02:08 67° 2° (N) 568 ? -17.4°
Drops below altitude 10° 01:06:09 10° 86° (E) 1,762 ? -16.9°
Sets 01:08:24 0° 89° (E) 2,654 ? -16.7°
